Location: Central Falls
(41.8900°N, 71.3929°W)
Time: 02:40:14
(UTC+00:00)

Vanguard 2 Rocket - Pass Details

Date: 10 December 2023
Orbit: 555 x 3309 km, 32.9° (Epoch: 01 March)

Event Time Altitude Azimuth Distance (km) Brightness Sun altitude
Rises 21:05:21 0° 269° (W) 6,460 12.4 0.6°
Reaches altitude 10° 21:09:17 10° 266° (W) 5,704 12.2 0.0°
Maximum altitude 21:27:39 61° 193° (SSW) 3,606 10.2 -3.0°
Drops below altitude 10° 21:46:04 10° 119° (ESE) 5,707 10.6 -6.0°
Sets 21:50:01 0° 116° (ESE) 6,462 10.9 -6.7°
